TimeEST,TemperatureF,Dew PointF,Humidity,Sea Level PressureIn,VisibilityMPH,Wind Direction,Wind SpeedMPH,Gust SpeedMPH,PrecipitationIn,Events,Conditions,WindDirDegrees,DateUTC
12:54 AM,39.0,19.9,46,29.94,10.0,West,6.9,-,N/A,,Scattered Clouds,280,2014-02-23 05:54:00
1:54 AM,37.0,23.0,57,29.94,10.0,Calm,Calm,-,N/A,,Mostly Cloudy,0,2014-02-23 06:54:00
2:54 AM,37.0,21.9,54,29.94,10.0,SSW,3.5,-,N/A,,Scattered Clouds,200,2014-02-23 07:54:00
3:54 AM,30.9,23.0,72,29.94,10.0,Calm,Calm,-,N/A,,Overcast,0,2014-02-23 08:54:00
4:54 AM,30.0,24.1,79,29.94,10.0,Calm,Calm,-,N/A,,Overcast,0,2014-02-23 09:54:00
5:54 AM,30.9,24.1,76,29.94,10.0,ENE,3.5,-,N/A,,Overcast,70,2014-02-23 10:54:00
6:54 AM,41.0,24.1,51,29.93,10.0,SW,10.4,-,N/A,,Overcast,230,2014-02-23 11:54:00
7:54 AM,39.9,25.0,55,29.95,10.0,SW,8.1,-,N/A,,Overcast,230,2014-02-23 12:54:00
8:54 AM,41.0,25.0,53,29.96,10.0,SW,4.6,-,N/A,,Overcast,230,2014-02-23 13:54:00
9:54 AM,41.0,25.0,53,29.93,10.0,WSW,6.9,-,N/A,,Overcast,250,2014-02-23 14:54:00
10:54 AM,43.0,21.0,42,29.92,10.0,WSW,11.5,-,N/A,,Overcast,240,2014-02-23 15:54:00
11:54 AM,44.1,21.0,40,29.89,10.0,West,9.2,-,N/A,,Scattered Clouds,260,2014-02-23 16:54:00
12:54 PM,45.0,18.0,34,29.86,10.0,West,9.2,-,N/A,,Clear,260,2014-02-23 17:54:00
1:54 PM,46.0,15.1,29,29.85,10.0,West,8.1,-,N/A,,Overcast,260,2014-02-23 18:54:00
2:54 PM,45.0,12.0,26,29.84,10.0,SW,6.9,-,N/A,,Overcast,230,2014-02-23 19:54:00
3:54 PM,45.0,14.0,29,29.83,10.0,SW,8.1,-,N/A,,Partly Cloudy,230,2014-02-23 20:54:00
4:54 PM,44.1,12.0,27,29.83,10.0,WSW,5.8,-,N/A,,Clear,240,2014-02-23 21:54:00
5:54 PM,39.9,12.9,33,29.83,10.0,Calm,Calm,-,N/A,,Clear,0,2014-02-23 22:54:00
6:54 PM,32.0,21.0,64,29.82,10.0,Calm,Calm,-,N/A,,Clear,0,2014-02-23 23:54:00
7:54 PM,28.9,21.9,75,29.83,10.0,Calm,Calm,-,N/A,,Clear,0,2014-02-24 00:54:00
8:54 PM,28.0,19.9,72,29.83,10.0,Calm,Calm,-,N/A,,Clear,0,2014-02-24 01:54:00
9:54 PM,28.0,21.0,75,29.82,10.0,Calm,Calm,-,N/A,,Clear,0,2014-02-24 02:54:00
10:54 PM,26.1,19.9,78,29.80,10.0,Calm,Calm,-,N/A,,Clear,0,2014-02-24 03:54:00
11:54 PM,28.0,19.9,72,29.78,10.0,Calm,Calm,-,N/A,,Clear,0,2014-02-24 04:54:00